Location: Quaker Farms
(41.4276°N, 73.1557°W)
Time: 20:57:24
(UTC+00:00)

S-56A Canister/Altair - Pass Details

Date: 22 June 2021
Orbit: 631 x 2501 km, 38.9° (Epoch: 30 July)

Event Time Altitude Azimuth Distance (km) Brightness Sun altitude
Rises 09:16:56 0° 247° (WSW) 3,015 - -1.2°
Exits shadow 09:17:13 - 247° (WSW) 2,894 9.8 -1.2°
Reaches altitude 10° 09:19:21 10° 243° (WSW) 2,030 9.1 -0.9°
Maximum altitude 09:23:40 51° 166° (SSE) 793 7.6 -0.2°
Drops below altitude 10° 09:28:14 10° 91° (E) 2,147 10.9 0.6°
Sets 09:30:51 0° 86° (E) 3,209 12.0 1.0°
